TimeCEST,TemperatureF,Dew PointF,Humidity,Sea Level PressureIn,VisibilityMPH,Wind Direction,Wind SpeedMPH,Gust SpeedMPH,PrecipitationIn,Events,Conditions,WindDirDegrees,DateUTC
12:00 AM,62.6,60.8,94,29.98,-9999.0,Calm,Calm,-,N/A,,Clear,0,2013-05-09 22:00:00
12:30 AM,60.8,59.0,94,29.98,-9999.0,Calm,Calm,-,N/A,,Clear,0,2013-05-09 22:30:00
1:00 AM,59.0,57.2,94,29.98,-9999.0,Calm,Calm,-,N/A,,Clear,0,2013-05-09 23:00:00
1:30 AM,60.8,59.0,94,29.98,-9999.0,NE,1.2,-,N/A,,Clear,50,2013-05-09 23:30:00
2:00 AM,59,56,88,29.98,9,NNW,3.5,,,,Clear,340,2013-05-10 00:00:00
2:00 AM,59.0,59.0,100,29.98,-9999.0,North,3.5,-,N/A,,Clear,360,2013-05-10 00:00:00
2:30 AM,60.8,57.2,88,29.95,-9999.0,South,1.2,-,N/A,,Clear,170,2013-05-10 00:30:00
3:00 AM,57.2,55.4,94,29.95,-9999.0,Calm,Calm,-,N/A,,Clear,0,2013-05-10 01:00:00
3:30 AM,57.2,55.4,94,29.95,-9999.0,NNE,2.3,-,N/A,,Clear,30,2013-05-10 01:30:00
4:00 AM,59.0,57.2,94,29.95,-9999.0,Variable,2.3,-,N/A,,Clear,0,2013-05-10 02:00:00
4:30 AM,57.2,55.4,94,29.95,6.2,Variable,1.2,-,N/A,,Partly Cloudy,0,2013-05-10 02:30:00
5:00 AM,57.2,55.4,94,29.95,6.2,ENE,5.8,-,N/A,,Partly Cloudy,60,2013-05-10 03:00:00
5:30 AM,57.2,55.4,94,29.95,6.2,Variable,1.2,-,N/A,,Partly Cloudy,0,2013-05-10 03:30:00
6:00 AM,55.4,53.6,94,29.95,6.2,ENE,2.3,-,N/A,,Partly Cloudy,60,2013-05-10 04:00:00
6:30 AM,57.2,55.4,94,29.95,6.2,ENE,6.9,-,N/A,,Partly Cloudy,60,2013-05-10 04:30:00
7:00 AM,57.2,55.4,94,29.98,6.2,NE,11.5,-,N/A,,Partly Cloudy,50,2013-05-10 05:00:00
7:30 AM,60.8,59.0,94,29.98,6.2,NNE,6.9,-,N/A,,Partly Cloudy,30,2013-05-10 05:30:00
8:00 AM,64,58,77,30.01,6,ENE,6.9,,,,Scattered Clouds,70,2013-05-10 06:00:00
8:00 AM,64.4,60.8,88,30.01,6.2,NE,9.2,-,N/A,,Partly Cloudy,50,2013-05-10 06:00:00
8:30 AM,64.4,60.8,88,30.01,6.2,ENE,15.0,-,N/A,,Partly Cloudy,60,2013-05-10 06:30:00
9:00 AM,66.2,60.8,83,30.01,6.2,ENE,18.4,-,N/A,,Partly Cloudy,60,2013-05-10 07:00:00
9:30 AM,68.0,57.2,68,30.04,6.2,ENE,20.7,-,N/A,,Partly Cloudy,70,2013-05-10 07:30:00
10:00 AM,68.0,55.4,64,30.04,6.2,ENE,20.7,-,N/A,,Partly Cloudy,60,2013-05-10 08:00:00
10:30 AM,69.8,55.4,60,30.04,6.2,ENE,20.7,-,N/A,,Partly Cloudy,60,2013-05-10 08:30:00
11:00 AM,71.6,55.4,57,30.06,6.2,ENE,19.6,-,N/A,,Partly Cloudy,60,2013-05-10 09:00:00
12:00 PM,71.6,51.8,50,30.06,6.2,ENE,19.6,-,N/A,,Partly Cloudy,70,2013-05-10 10:00:00
12:30 PM,71.6,53.6,53,30.06,6.2,ENE,19.6,-,N/A,,Partly Cloudy,60,2013-05-10 10:30:00
1:00 PM,71.6,53.6,53,30.06,6.2,NE,19.6,-,N/A,,Partly Cloudy,50,2013-05-10 11:00:00
1:30 PM,73.4,50.0,44,30.06,6.2,NE,18.4,-,N/A,,Partly Cloudy,50,2013-05-10 11:30:00
2:00 PM,74,51,33,30.08,19,ENE,18.4,,,,Scattered Clouds,60,2013-05-10 12:00:00
2:00 PM,73.4,51.8,47,30.06,6.2,ENE,20.7,-,N/A,,Partly Cloudy,70,2013-05-10 12:00:00
2:30 PM,73.4,50.0,44,30.06,6.2,ENE,17.3,-,N/A,,Partly Cloudy,70,2013-05-10 12:30:00
3:00 PM,73.4,50.0,44,30.06,6.2,ENE,16.1,-,N/A,,Partly Cloudy,60,2013-05-10 13:00:00
3:30 PM,73.4,48.2,41,30.06,6.2,ENE,17.3,-,N/A,,Partly Cloudy,60,2013-05-10 13:30:00
4:00 PM,73.4,50.0,44,30.06,6.2,ENE,16.1,-,N/A,,Partly Cloudy,60,2013-05-10 14:00:00
4:30 PM,73.4,50.0,44,30.06,6.2,ENE,13.8,-,N/A,,Partly Cloudy,60,2013-05-10 14:30:00
5:00 PM,73.4,48.2,41,30.04,6.2,ENE,12.7,-,N/A,,Partly Cloudy,70,2013-05-10 15:00:00
5:30 PM,73.4,50.0,44,30.04,6.2,ENE,13.8,-,N/A,,Partly Cloudy,60,2013-05-10 15:30:00
6:00 PM,71.6,50.0,46,30.04,-9999.0,NE,12.7,-,N/A,,Clear,50,2013-05-10 16:00:00
6:30 PM,71.6,50.0,46,30.04,6.2,NE,10.4,-,N/A,,Partly Cloudy,50,2013-05-10 16:30:00
7:00 PM,69.8,51.8,53,30.04,-9999.0,ENE,10.4,-,N/A,,Clear,60,2013-05-10 17:00:00
7:30 PM,68.0,50.0,52,30.04,-9999.0,ENE,10.4,-,N/A,,Clear,60,2013-05-10 17:30:00
8:00 PM,67,50,43,30.05,16,ENE,11.5,,,,Mostly Cloudy,70,2013-05-10 18:00:00
8:00 PM,66.2,51.8,60,30.04,-9999.0,NE,11.5,-,N/A,,Clear,50,2013-05-10 18:00:00
8:30 PM,66.2,51.8,60,30.04,-9999.0,ENE,10.4,-,N/A,,Clear,60,2013-05-10 18:30:00
9:00 PM,64.4,51.8,64,30.06,-9999.0,NE,10.4,-,N/A,,Clear,50,2013-05-10 19:00:00
9:30 PM,62.6,53.6,72,30.06,-9999.0,ENE,6.9,-,N/A,,Clear,70,2013-05-10 19:30:00
10:00 PM,60.8,53.6,77,30.06,-9999.0,East,3.5,-,N/A,,Clear,90,2013-05-10 20:00:00
10:30 PM,60.8,53.6,77,30.09,-9999.0,ENE,5.8,-,N/A,,Clear,70,2013-05-10 20:30:00
11:00 PM,60.8,53.6,77,30.12,-9999.0,ENE,3.5,-,N/A,,Clear,60,2013-05-10 21:00:00
11:30 PM,60.8,53.6,77,30.12,-9999.0,Calm,Calm,-,N/A,,Clear,0,2013-05-10 21:30:00